Regional Weather Roundup
Issued by NWS

Home | Current Version | Previous Version | Text Only | Print | Product List | Glossary On
Versions: 1 2 3 4 5 6 7 8 9 10 11 12 13 14 15 16 17 18 19 20 21 22 23 24 25 26 27 28 29 30 31 32 33 34 35 36 37 38 39 40 41 42 43 44 45 46 47 48 49 50
000
ASUS43 KTOP 232108
RWRKS

WEATHER ROUNDUP FOR KANSAS
NATIONAL WEATHER SERVICE GOODLAND KS
300 PM CST FRI FEB 23 2018

NOTE:  "FAIR" INDICATES FEW OR NO CLOUDS BELOW 12,000 FEET WITH NO
SIGNIFICANT WEATHER AND/OR OBSTRUCTIONS TO VISIBILITY.

KSZ001>006-013>018-027>032-041>047-232200-
NORTHWEST KANSAS

CITY           SKY/WX    TMP DP  RH WIND       PRES   REMARKS
GOODLAND       SUNNY     37  22  54 SE13      30.05F WCI  29
HAYS           CLOUDY    34  26  72 E8        30.20F
HILL CITY      PTSUNNY   34  24  67 E7G22     30.18F
RUSSELL        SUNNY     41  26  55 E8        30.18F
$$

KSZ061>065-074>080-084>089-232200-
SOUTHWEST KANSAS

CITY           SKY/WX    TMP DP  RH WIND       PRES   REMARKS
DODGE CITY     CLOUDY    29  26  89 E9        30.15F
ELKHART        CLOUDY    36  32  87 E14G23    30.03F WCI  27
GARDEN CITY    CLOUDY    28  25  88 E14       30.11F WCI  17
GREAT BEND     CLOUDY    35  27  72 E9        30.19F
LIBERAL        MIX PCPN  31  30  96 E15       30.09F VSB 1/4 WCI  20
PRATT          CLOUDY    31  27  86 E5        30.19F
$$

KSZ066>073-081>083-090>101-232200-
SOUTHEAST KANSAS

CITY           SKY/WX    TMP DP  RH WIND       PRES   REMARKS
CHANUTE        CLOUDY    39  35  86 N8        30.23F
COFFEYVILLE    CLOUDY    41  38  89 NE10      30.19F
HUTCHINSON     CLOUDY    32  29  88 E8        30.20F
MEDICINE LODGE   N/A     33  32  96 E9        30.18F
NEWTON         CLOUDY    31  28  89 NE7       30.22F
PARSONS        CLOUDY    41  37  86 N7        30.21F
WICHITA INTL   CLOUDY    34  32  92 NE6       30.21F
WICHITA JABRA  CLOUDY    33  32  96 NE9       30.20F
WICHITA MCCONL CLOUDY    33  32  95 NE3       30.20F
WINFIELD       CLOUDY    37  36  96 E7        30.20F
$$

KSZ007>012-019>026-033>040-048>060-102>105-232200-
NORTHEAST KANSAS

CITY           SKY/WX    TMP DP  RH WIND       PRES   REMARKS
CONCORDIA      SUNNY     37  27  67 NE9       30.23F
EMPORIA        CLOUDY    32  29  88 NE7       30.23F
LAWRENCE       CLOUDY    35  30  82 NE6       30.26F
MANHATTAN      CLOUDY    36  28  73 E3        30.25F
MARYSVILLE     CLOUDY    36  28  75 NE3       30.24F
OLATHE IND     CLOUDY    34  31  88 N7        30.25F
OLATHE EXE     CLOUDY    34  31  88 N7        30.24F
SALINA         CLOUDY    37  29  72 E7        30.24F
TOPEKA BILLARD CLOUDY    36  30  79 NE3       30.26F
TOPEKA FORBES  CLOUDY    35  30  82 E5        30.24F
$$




USA.gov is the U.S. government's official web portal to all federal, state and local government web resources and services.